Regional Weather Roundup
Issued by NWS Green Bay, WI

Home | Current Version | Previous Version | Graphics & Text | Print | Product List | Glossary Off
Versions: 1 2 3 4 5 6 7 8 9 10 11 12 13 14 15 16 17 18 19 20 21 22 23 24 25 26 27 28 29 30 31 32 33 34 35 36 37 38 39 40 41 42 43 44 45 46 47 48 49 50

000
ASUS43 KGRB 180900
RWRGRB

NORTH-CENTRAL AND NORTHEAST WISCONSIN REGIONAL WEATHER ROUNDUP
NATIONAL WEATHER SERVICE GREEN BAY WI
400 AM CDT FRI AUG 18 2017

WIZ005-009-010>012-018-019-181000-
NORTH CENTRAL WISCONSIN

CITY           SKY/WX    TMP DP  RH WIND       PRES   REMARKS
IRONWOOD       CLOUDY    60  59  96 W10       29.75R
MANITOWISH WTR NOT AVBL
ARBOR VITAE    NOT AVBL
EAGLE RIVER    NOT AVBL
LAND O LAKES   DRIZZLE   60  59  98 NW9       29.71S
RHINELANDER    CLOUDY    60  60 100 NW8       29.73R
PHILLIPS       CLOUDY    60  59  98 W6        29.77R
ANTIGO         NOT AVBL
TOMAHAWK       NOT AVBL
MERRILL        NOT AVBL
$$

WIZ013-073-181000-
NORTHEAST WISCONSIN

CITY           SKY/WX    TMP DP  RH WIND       PRES   REMARKS
IRON MOUNTAIN  CLOUDY    63  57  81 NW15G22   29.62R
MARINETTE      CLOUDY    64  60  87 W8        29.62R
$$

WIZ017-030-035>037-045-181000-
CENTRAL WISCONSIN

CITY           SKY/WX    TMP DP  RH WIND       PRES   REMARKS
MEDFORD        NOT AVBL
WAUSAU         CLOUDY    62  59  90 NW13      29.73R
MOSINEE        NOT AVBL
MARSHFIELD     CLOUDY    62  58  86 W10       29.78R
WISC RAPIDS    CLOUDY    63  61  93 W12       29.79R
STEVENS POINT  NOT AVBL
WAUPACA        NOT AVBL
SHAWANO        CLEAR     64  59  83 W9        29.68R
CLINTONVILLE   MOCLDY    63  59  88 W13       29.69S
WAUTOMA        CLOUDY    65  61  87 W10       29.76S
$$

WIZ038-039-048-051-181000-
FOX VALLEY

CITY           SKY/WX    TMP DP  RH WIND       PRES   REMARKS
NWS GREEN BAY  CLEAR     62  61  96 W12       29.67S
APPLETON       NOT AVBL
OSHKOSH        CLOUDY    64  61  90 W9        29.71S
FOND DU LAC    CLOUDY    66  60  81 W12       29.73S
$$

WIZ022-050-052-181000-
EAST CENTRAL WISCONSIN

CITY           SKY/WX    TMP DP  RH WIND       PRES   REMARKS
EPHRAIM        NOT AVBL
WASHINGTON ISL NOT AVBL
STURGEON BAY   CLOUDY    64  60  87 W16       29.63S
MANITOWOC      NOT AVBL
SHEBOYGAN      MOCLDY    66  62  87 W9        29.69R
$$

LMZ563-521-522-541>543-181000-
LAKESHORE

STATION/POSITION TIME  TEMP    WIND        PRES    VSBY  WAVE
                       AIR SEA DIR/SP/G                  HT/PER
                 (UTC) (F)     (DEG/KT/KT) (MB)    (MI)  (FT/S)
SHEBOYGAN LKSHOR 0800   67     280/ 14/ 19 1004.7R
KEWAUNEE LKSHORE 0830   66     280/  8/ 15 1003.0R
NORTHPORT PIER   0840   65     290/ 10/ 17 1001.7F
N MID LAKE BUOY  0750   65 67  270/ 21/ 25 1000.5R         4/ 6
S GREEN BAY BUOY 0830   66 71  250/ 16/ 21 1003.4R
SISTER BAY LKSHO 0818   66     310/ 17/ 19   N/A
MENOMINEE LKSHOR 0830   65     270/  7/ 11 1002.5R
$$




USA.gov is the U.S. government's official web portal to all federal, state and local government web resources and services.